Year,Month,Day,Hour,Minute,Value (Times are PST for temperature in C)
2011,08,08,00,00,13.10
2011,08,08,00,01,13.10
2011,08,08,00,02,13.10
2011,08,08,00,03,13.10
2011,08,08,00,04,13.10
2011,08,08,00,05,13.10
2011,08,08,00,06,13.00
2011,08,08,00,07,13.00
2011,08,08,00,08,13.00
2011,08,08,00,09,13.00
2011,08,08,00,10,12.90
2011,08,08,00,11,12.90
2011,08,08,00,12,12.90
2011,08,08,00,13,12.90
2011,08,08,00,14,12.90
2011,08,08,00,15,12.90
2011,08,08,00,16,12.90
2011,08,08,00,17,12.90
2011,08,08,00,18,12.80
2011,08,08,00,19,12.80
2011,08,08,00,20,12.80
2011,08,08,00,21,12.80
2011,08,08,00,22,12.80
2011,08,08,00,23,12.80
2011,08,08,00,24,12.80
2011,08,08,00,25,12.80
2011,08,08,00,26,12.80
2011,08,08,00,27,12.80
2011,08,08,00,28,12.80
2011,08,08,00,29,12.80
2011,08,08,00,30,12.80
2011,08,08,00,31,12.80
2011,08,08,00,32,12.80
2011,08,08,00,33,12.80
2011,08,08,00,34,12.80
2011,08,08,00,35,12.80
2011,08,08,00,36,12.80
2011,08,08,00,37,12.80
2011,08,08,00,38,12.80
2011,08,08,00,39,12.80
2011,08,08,00,40,12.80
2011,08,08,00,41,12.80
2011,08,08,00,42,12.70
2011,08,08,00,43,12.70
2011,08,08,00,44,12.70
2011,08,08,00,45,12.70
2011,08,08,00,46,12.70
2011,08,08,00,47,12.70
2011,08,08,00,48,12.70
2011,08,08,00,49,12.70
2011,08,08,00,50,12.70
2011,08,08,00,51,12.70
2011,08,08,00,52,12.70
2011,08,08,00,53,12.70
2011,08,08,00,54,12.70
2011,08,08,00,55,12.70
2011,08,08,00,56,12.60
2011,08,08,00,57,12.60
2011,08,08,00,58,12.60
2011,08,08,00,59,12.60
2011,08,08,01,00,12.60
2011,08,08,01,01,12.60
2011,08,08,01,02,12.60
2011,08,08,01,03,12.60
2011,08,08,01,04,12.60
2011,08,08,01,05,12.60
2011,08,08,01,06,12.60
2011,08,08,01,07,12.60
2011,08,08,01,08,12.60
2011,08,08,01,09,12.60
2011,08,08,01,10,12.60
2011,08,08,01,11,12.60
2011,08,08,01,12,12.60
2011,08,08,01,13,12.60
2011,08,08,01,14,12.50
2011,08,08,01,15,12.50
2011,08,08,01,16,12.50
2011,08,08,01,17,12.50
2011,08,08,01,18,12.50
2011,08,08,01,19,12.50
2011,08,08,01,20,12.50
2011,08,08,01,21,12.40
2011,08,08,01,22,12.50
2011,08,08,01,23,12.40
2011,08,08,01,24,12.40
2011,08,08,01,25,12.40
2011,08,08,01,26,12.40
2011,08,08,01,27,12.40
2011,08,08,01,28,12.40
2011,08,08,01,29,12.40
2011,08,08,01,30,12.40
2011,08,08,01,31,12.40
2011,08,08,01,32,12.30
2011,08,08,01,33,12.30
2011,08,08,01,34,12.30
2011,08,08,01,35,12.30
2011,08,08,01,36,12.30
2011,08,08,01,37,12.30
2011,08,08,01,38,12.30
2011,08,08,01,39,12.30
2011,08,08,01,40,12.20
2011,08,08,01,41,12.20
2011,08,08,01,42,12.20
2011,08,08,01,43,12.20
2011,08,08,01,44,12.20
2011,08,08,01,45,12.20
2011,08,08,01,46,12.20
2011,08,08,01,47,12.20
2011,08,08,01,48,12.20
2011,08,08,01,49,12.20
2011,08,08,01,50,12.20
2011,08,08,01,51,12.20
2011,08,08,01,52,12.20
2011,08,08,01,53,12.20
2011,08,08,01,54,12.20
2011,08,08,01,55,12.20
2011,08,08,01,56,12.20
2011,08,08,01,57,12.20
2011,08,08,01,58,12.20
2011,08,08,01,59,12.10
2011,08,08,02,00,12.10
2011,08,08,02,01,12.10
2011,08,08,02,02,12.10
2011,08,08,02,03,12.10
2011,08,08,02,04,12.10
2011,08,08,02,05,12.10
2011,08,08,02,06,12.10
2011,08,08,02,07,12.10
2011,08,08,02,08,12.10
2011,08,08,02,09,12.10
2011,08,08,02,10,12.10
2011,08,08,02,11,12.10
2011,08,08,02,12,12.10
2011,08,08,02,13,12.10
2011,08,08,02,14,12.10
2011,08,08,02,15,12.10
2011,08,08,02,16,12.10
2011,08,08,02,17,12.10
2011,08,08,02,18,12.10
2011,08,08,02,19,12.10
2011,08,08,02,20,12.00
2011,08,08,02,21,12.00
2011,08,08,02,22,12.00
2011,08,08,02,23,12.00
2011,08,08,02,24,12.00
2011,08,08,02,25,12.00
2011,08,08,02,26,12.00
2011,08,08,02,27,11.90
2011,08,08,02,28,11.90
2011,08,08,02,29,11.90
2011,08,08,02,30,11.90
2011,08,08,02,31,11.90
2011,08,08,02,32,11.90
2011,08,08,02,33,11.90
2011,08,08,02,34,11.90
2011,08,08,02,35,11.90
2011,08,08,02,36,11.90
2011,08,08,02,37,11.90
2011,08,08,02,38,11.90
2011,08,08,02,39,11.90
2011,08,08,02,40,11.90
2011,08,08,02,41,11.90
2011,08,08,02,42,11.90
2011,08,08,02,43,11.90
2011,08,08,02,44,11.90
2011,08,08,02,45,11.90
2011,08,08,02,46,11.90
2011,08,08,02,47,11.90
2011,08,08,02,48,11.90
2011,08,08,02,49,11.80
2011,08,08,02,50,11.80
2011,08,08,02,51,11.80
2011,08,08,02,52,11.80
2011,08,08,02,53,11.80
2011,08,08,02,54,11.80
2011,08,08,02,55,11.80
2011,08,08,02,56,11.80
2011,08,08,02,57,11.80
2011,08,08,02,58,11.80
2011,08,08,02,59,11.80
2011,08,08,03,00,11.80
2011,08,08,03,01,11.70
2011,08,08,03,02,11.70
2011,08,08,03,03,11.70
2011,08,08,03,04,11.70
2011,08,08,03,05,11.70
2011,08,08,03,06,11.70
2011,08,08,03,07,11.70
2011,08,08,03,08,11.70
2011,08,08,03,09,11.70
2011,08,08,03,10,11.70
2011,08,08,03,11,11.70
2011,08,08,03,12,11.70
2011,08,08,03,13,11.70
2011,08,08,03,14,11.70
2011,08,08,03,15,11.70
2011,08,08,03,16,11.70
2011,08,08,03,17,11.70
2011,08,08,03,18,11.70
2011,08,08,03,19,11.70
2011,08,08,03,20,11.70
2011,08,08,03,21,11.70
2011,08,08,03,22,11.70
2011,08,08,03,23,11.70
2011,08,08,03,24,11.70
2011,08,08,03,25,11.70
2011,08,08,03,26,11.70
2011,08,08,03,27,11.70
2011,08,08,03,28,11.70
2011,08,08,03,29,11.70
2011,08,08,03,30,11.70
2011,08,08,03,31,11.70
2011,08,08,03,32,11.70
2011,08,08,03,33,11.70
2011,08,08,03,34,11.70
2011,08,08,03,35,11.70
2011,08,08,03,36,11.70
2011,08,08,03,37,11.70
2011,08,08,03,38,11.70
2011,08,08,03,39,11.70
2011,08,08,03,40,11.70
2011,08,08,03,41,11.70
2011,08,08,03,42,11.70
2011,08,08,03,43,11.70
2011,08,08,03,44,11.70
2011,08,08,03,45,11.70
2011,08,08,03,46,11.70
2011,08,08,03,47,11.70
2011,08,08,03,48,11.70
2011,08,08,03,49,11.70
2011,08,08,03,50,11.70
2011,08,08,03,51,11.70
2011,08,08,03,52,11.70
2011,08,08,03,53,11.70
2011,08,08,03,54,11.70
2011,08,08,03,55,11.70
2011,08,08,03,56,11.80
2011,08,08,03,57,11.80
2011,08,08,03,58,11.80
2011,08,08,03,59,11.80
2011,08,08,04,00,11.80
2011,08,08,04,01,11.80
2011,08,08,04,02,11.80
2011,08,08,04,03,11.80
2011,08,08,04,04,11.80
2011,08,08,04,05,11.80
2011,08,08,04,06,11.80
2011,08,08,04,07,11.80
2011,08,08,04,08,11.80
2011,08,08,04,09,11.80
2011,08,08,04,10,11.80
2011,08,08,04,11,11.80
2011,08,08,04,12,11.80
2011,08,08,04,13,11.80
2011,08,08,04,14,11.80
2011,08,08,04,15,11.80
2011,08,08,04,16,11.80
2011,08,08,04,17,11.80
2011,08,08,04,18,11.80
2011,08,08,04,19,11.80
2011,08,08,04,20,11.80
2011,08,08,04,21,11.80
2011,08,08,04,22,11.80
2011,08,08,04,23,11.80
2011,08,08,04,24,11.80
2011,08,08,04,25,11.80
2011,08,08,04,26,11.70
2011,08,08,04,27,11.70
2011,08,08,04,28,11.70
2011,08,08,04,29,11.70
2011,08,08,04,30,11.70
2011,08,08,04,31,11.70
2011,08,08,04,32,11.70
2011,08,08,04,33,11.70
2011,08,08,04,34,11.70
2011,08,08,04,35,11.70
2011,08,08,04,36,11.70
2011,08,08,04,37,11.70
2011,08,08,04,38,11.70
2011,08,08,04,39,11.70
2011,08,08,04,40,11.70
2011,08,08,04,41,11.70
2011,08,08,04,42,11.70
2011,08,08,04,43,11.70
2011,08,08,04,44,11.70
2011,08,08,04,45,11.70
2011,08,08,04,46,11.70
2011,08,08,04,47,11.70
2011,08,08,04,48,11.70
2011,08,08,04,49,11.70
2011,08,08,04,50,11.70
2011,08,08,04,51,11.70
2011,08,08,04,52,11.70
2011,08,08,04,53,11.70
2011,08,08,04,54,11.70
2011,08,08,04,55,11.70
2011,08,08,04,56,11.70
2011,08,08,04,57,11.70
2011,08,08,04,58,11.70
2011,08,08,04,59,11.70
2011,08,08,05,00,11.70
2011,08,08,05,01,11.70
2011,08,08,05,02,11.80
2011,08,08,05,03,11.80
2011,08,08,05,04,11.80
2011,08,08,05,05,11.80
2011,08,08,05,06,11.80
2011,08,08,05,07,11.80
2011,08,08,05,08,11.80
2011,08,08,05,09,11.80
2011,08,08,05,10,11.80
2011,08,08,05,11,11.90
2011,08,08,05,12,11.90
2011,08,08,05,13,11.90
2011,08,08,05,14,12.00
2011,08,08,05,15,12.00
2011,08,08,05,16,12.00
2011,08,08,05,17,12.10
2011,08,08,05,18,12.10
2011,08,08,05,19,12.10
2011,08,08,05,20,12.10
2011,08,08,05,21,12.10
2011,08,08,05,22,12.20
2011,08,08,05,23,12.20
2011,08,08,05,24,12.20
2011,08,08,05,25,12.20
2011,08,08,05,26,12.30
2011,08,08,05,27,12.30
2011,08,08,05,28,12.30
2011,08,08,05,29,12.30
2011,08,08,05,30,12.30
2011,08,08,05,31,12.40
2011,08,08,05,32,12.40
2011,08,08,05,33,12.40
2011,08,08,05,34,12.40
2011,08,08,05,35,12.40
2011,08,08,05,36,12.40
2011,08,08,05,37,12.40
2011,08,08,05,38,12.50
2011,08,08,05,39,12.50
2011,08,08,05,40,12.50
2011,08,08,05,41,12.60
2011,08,08,05,42,12.60
2011,08,08,05,43,12.60
2011,08,08,05,44,12.60
2011,08,08,05,45,12.60
2011,08,08,05,46,12.70
2011,08,08,05,47,12.70
2011,08,08,05,48,12.70
2011,08,08,05,49,12.70
2011,08,08,05,50,12.80
2011,08,08,05,51,12.80
2011,08,08,05,52,12.80
2011,08,08,05,53,12.80
2011,08,08,05,54,12.80
2011,08,08,05,55,12.80
2011,08,08,05,56,12.80
2011,08,08,05,57,12.80
2011,08,08,05,58,12.90
2011,08,08,05,59,12.90
2011,08,08,06,00,12.90
2011,08,08,06,01,12.90
2011,08,08,06,02,12.90
2011,08,08,06,03,12.90
2011,08,08,06,04,13.00
2011,08,08,06,05,13.00
2011,08,08,06,06,13.00
2011,08,08,06,07,13.00
2011,08,08,06,08,13.00
2011,08,08,06,09,13.00
2011,08,08,06,10,13.10
2011,08,08,06,11,13.10
2011,08,08,06,12,13.10
2011,08,08,06,13,13.10
2011,08,08,06,14,13.10
2011,08,08,06,15,13.10
2011,08,08,06,16,13.10
2011,08,08,06,17,13.10
2011,08,08,06,18,13.10
2011,08,08,06,19,13.10
2011,08,08,06,20,13.10
2011,08,08,06,21,13.20
2011,08,08,06,22,13.20
2011,08,08,06,23,13.20
2011,08,08,06,24,13.10
2011,08,08,06,25,13.20
2011,08,08,06,26,13.20
2011,08,08,06,27,13.10
2011,08,08,06,28,13.10
2011,08,08,06,29,13.10
2011,08,08,06,30,13.10
2011,08,08,06,31,13.10
2011,08,08,06,32,13.10
2011,08,08,06,33,13.10
2011,08,08,06,34,13.10
2011,08,08,06,35,13.10
2011,08,08,06,36,13.10
2011,08,08,06,37,13.10
2011,08,08,06,38,13.10
2011,08,08,06,39,13.10
2011,08,08,06,40,13.10
2011,08,08,06,41,13.10
2011,08,08,06,42,13.10
2011,08,08,06,43,13.10
2011,08,08,06,44,13.10
2011,08,08,06,45,13.10
2011,08,08,06,46,13.10
2011,08,08,06,47,13.10
2011,08,08,06,48,13.10
2011,08,08,06,49,13.10
2011,08,08,06,50,13.10
2011,08,08,06,51,13.10
2011,08,08,06,52,13.10
2011,08,08,06,53,13.10
2011,08,08,06,54,13.20
2011,08,08,06,55,13.20
2011,08,08,06,56,13.20
2011,08,08,06,57,13.20
2011,08,08,06,58,13.20
2011,08,08,06,59,13.20
2011,08,08,07,00,13.20
2011,08,08,07,01,13.20
2011,08,08,07,02,13.20
2011,08,08,07,03,13.20
2011,08,08,07,04,13.30
2011,08,08,07,05,13.30
2011,08,08,07,06,13.30
2011,08,08,07,07,13.30
2011,08,08,07,08,13.40
2011,08,08,07,09,13.40
2011,08,08,07,10,13.40
2011,08,08,07,11,13.50
2011,08,08,07,12,13.50
2011,08,08,07,13,13.50
2011,08,08,07,14,13.60
2011,08,08,07,15,13.60
2011,08,08,07,16,13.60
2011,08,08,07,17,13.70
2011,08,08,07,18,13.70
2011,08,08,07,19,13.70
2011,08,08,07,20,13.80
2011,08,08,07,21,13.80
2011,08,08,07,22,13.80
2011,08,08,07,23,13.80
2011,08,08,07,24,13.90
2011,08,08,07,25,13.90
2011,08,08,07,26,13.90
2011,08,08,07,27,14.00
2011,08,08,07,28,14.10
2011,08,08,07,29,14.10
2011,08,08,07,30,14.10
2011,08,08,07,31,14.20
2011,08,08,07,32,14.30
2011,08,08,07,33,14.30
2011,08,08,07,34,14.40
2011,08,08,07,35,14.50
2011,08,08,07,36,14.50
2011,08,08,07,37,14.60
2011,08,08,07,38,14.70
2011,08,08,07,39,14.70
2011,08,08,07,40,14.80
2011,08,08,07,41,14.80
2011,08,08,07,42,14.80
2011,08,08,07,43,14.90
2011,08,08,07,44,14.90
2011,08,08,07,45,15.00
2011,08,08,07,46,15.00
2011,08,08,07,47,15.00
2011,08,08,07,48,15.10
2011,08,08,07,49,15.10
2011,08,08,07,50,15.20
2011,08,08,07,51,15.20
2011,08,08,07,52,15.30
2011,08,08,07,53,15.30
2011,08,08,07,54,15.40
2011,08,08,07,55,15.40
2011,08,08,07,56,15.50
2011,08,08,07,57,15.50
2011,08,08,07,58,15.60
2011,08,08,07,59,15.60
2011,08,08,08,00,15.70
2011,08,08,08,01,15.70
2011,08,08,08,02,15.70
2011,08,08,08,03,15.80
2011,08,08,08,04,15.80
2011,08,08,08,05,15.80
2011,08,08,08,06,15.80
2011,08,08,08,07,15.90
2011,08,08,08,08,15.90
2011,08,08,08,09,15.90
2011,08,08,08,10,15.90
2011,08,08,08,11,16.00
2011,08,08,08,12,16.00
2011,08,08,08,13,16.10
2011,08,08,08,14,16.10
2011,08,08,08,15,16.10
2011,08,08,08,16,16.10
2011,08,08,08,17,16.10
2011,08,08,08,18,16.20
2011,08,08,08,19,16.20
2011,08,08,08,20,16.20
2011,08,08,08,21,16.30
2011,08,08,08,22,16.30
2011,08,08,08,23,16.30
2011,08,08,08,24,16.30
2011,08,08,08,25,16.40
2011,08,08,08,26,16.40
2011,08,08,08,27,16.40
2011,08,08,08,28,16.50
2011,08,08,08,29,16.50
2011,08,08,08,30,16.50
2011,08,08,08,31,16.50
2011,08,08,08,32,16.50
2011,08,08,08,33,16.50
2011,08,08,08,34,16.50
2011,08,08,08,35,16.50
2011,08,08,08,36,16.60
2011,08,08,08,37,16.60
2011,08,08,08,38,16.60
2011,08,08,08,39,16.60
2011,08,08,08,40,16.60
2011,08,08,08,41,16.60
2011,08,08,08,42,16.70
2011,08,08,08,43,16.70
2011,08,08,08,44,16.70
2011,08,08,08,45,16.80
2011,08,08,08,46,16.80
2011,08,08,08,47,16.80
2011,08,08,08,48,16.90
2011,08,08,08,49,16.90
2011,08,08,08,50,17.00
2011,08,08,08,51,17.00
2011,08,08,08,52,17.10
2011,08,08,08,53,17.10
2011,08,08,08,54,17.10
2011,08,08,08,55,17.10
2011,08,08,08,56,17.10
2011,08,08,08,57,17.10
2011,08,08,08,58,17.10
2011,08,08,08,59,17.10
2011,08,08,09,00,17.10
2011,08,08,09,01,17.10
2011,08,08,09,02,17.10
2011,08,08,09,03,17.10
2011,08,08,09,04,17.10
2011,08,08,09,05,17.10
2011,08,08,09,06,17.10
2011,08,08,09,07,17.10
2011,08,08,09,08,17.10
2011,08,08,09,09,17.10
2011,08,08,09,10,17.10
2011,08,08,09,11,17.10
2011,08,08,09,12,17.10
2011,08,08,09,13,17.10
2011,08,08,09,14,17.10
2011,08,08,09,15,17.10
2011,08,08,09,16,17.10
2011,08,08,09,17,17.00
2011,08,08,09,18,16.90
2011,08,08,09,19,16.80
2011,08,08,09,20,16.80
2011,08,08,09,21,16.80
2011,08,08,09,22,16.80
2011,08,08,09,23,16.80
2011,08,08,09,24,16.90
2011,08,08,09,25,16.90
2011,08,08,09,26,16.90
2011,08,08,09,27,16.90
2011,08,08,09,28,17.00
2011,08,08,09,29,17.00
2011,08,08,09,30,17.10
2011,08,08,09,31,17.10
2011,08,08,09,32,17.10
2011,08,08,09,33,17.20
2011,08,08,09,34,17.20
2011,08,08,09,35,17.30
2011,08,08,09,36,17.30
2011,08,08,09,37,17.40
2011,08,08,09,38,17.50
2011,08,08,09,39,17.60
2011,08,08,09,40,17.70
2011,08,08,09,41,17.80
2011,08,08,09,42,17.90
2011,08,08,09,43,18.00
2011,08,08,09,44,18.10
2011,08,08,09,45,18.20
2011,08,08,09,46,18.30
2011,08,08,09,47,18.40
2011,08,08,09,48,18.40
2011,08,08,09,49,18.50
2011,08,08,09,50,18.50
2011,08,08,09,51,18.50
2011,08,08,09,52,18.40
2011,08,08,09,53,18.40
2011,08,08,09,54,18.40
2011,08,08,09,55,18.50
2011,08,08,09,56,18.60
2011,08,08,09,57,18.60
2011,08,08,09,58,18.70
2011,08,08,09,59,18.70
2011,08,08,10,00,18.80
2011,08,08,10,01,18.80
2011,08,08,10,02,18.80
2011,08,08,10,03,18.90
2011,08,08,10,04,18.90
2011,08,08,10,05,18.90
2011,08,08,10,06,19.00
2011,08,08,10,07,19.00
2011,08,08,10,08,19.00
2011,08,08,10,09,19.10
2011,08,08,10,10,19.10
2011,08,08,10,11,19.10
2011,08,08,10,12,19.10
2011,08,08,10,13,19.10
2011,08,08,10,14,19.10
2011,08,08,10,15,19.10
2011,08,08,10,16,19.00
2011,08,08,10,17,19.00
2011,08,08,10,18,19.00
2011,08,08,10,19,19.00
2011,08,08,10,20,18.90
2011,08,08,10,21,18.90
2011,08,08,10,22,18.90
2011,08,08,10,23,18.80
2011,08,08,10,24,18.80
2011,08,08,10,25,18.70
2011,08,08,10,26,18.60
2011,08,08,10,27,18.40
2011,08,08,10,28,18.30
2011,08,08,10,29,18.10
2011,08,08,10,30,18.00
2011,08,08,10,31,18.00
2011,08,08,10,32,17.90
2011,08,08,10,33,17.90
2011,08,08,10,34,17.90
2011,08,08,10,35,17.80
2011,08,08,10,36,17.70
2011,08,08,10,37,17.60
2011,08,08,10,38,17.50
2011,08,08,10,39,17.40
2011,08,08,10,40,17.30
2011,08,08,10,41,17.30
2011,08,08,10,42,17.20
2011,08,08,10,43,17.10
2011,08,08,10,44,17.10
2011,08,08,10,45,17.10
2011,08,08,10,46,17.10
2011,08,08,10,47,17.10
2011,08,08,10,48,17.20
2011,08,08,10,49,17.20
2011,08,08,10,50,17.20
2011,08,08,10,51,17.20
2011,08,08,10,52,17.20
2011,08,08,10,53,17.20
2011,08,08,10,54,17.30
2011,08,08,10,55,17.30
2011,08,08,10,56,17.40
2011,08,08,10,57,17.40
2011,08,08,10,58,17.40
2011,08,08,10,59,17.40
2011,08,08,11,00,17.50
2011,08,08,11,01,17.50
2011,08,08,11,02,17.60
2011,08,08,11,03,17.60
2011,08,08,11,04,17.60
2011,08,08,11,05,17.50
2011,08,08,11,06,17.40
2011,08,08,11,07,17.30
2011,08,08,11,08,17.30
2011,08,08,11,09,17.30
2011,08,08,11,10,17.30
2011,08,08,11,11,17.30
2011,08,08,11,12,17.40
2011,08,08,11,13,17.40
2011,08,08,11,14,17.40
2011,08,08,11,15,17.40
2011,08,08,11,16,17.40
2011,08,08,11,17,17.40
2011,08,08,11,18,17.40
2011,08,08,11,19,17.40
2011,08,08,11,20,17.40
2011,08,08,11,21,17.40
2011,08,08,11,22,17.40
2011,08,08,11,23,17.30
2011,08,08,11,24,17.30
2011,08,08,11,25,17.30
2011,08,08,11,26,17.30
2011,08,08,11,27,17.20
2011,08,08,11,28,17.20
2011,08,08,11,29,17.20
2011,08,08,11,30,17.20
2011,08,08,11,31,17.20
2011,08,08,11,32,17.20
2011,08,08,11,33,17.20
2011,08,08,11,34,17.20
2011,08,08,11,35,17.30
2011,08,08,11,36,17.30
2011,08,08,11,37,17.40
2011,08,08,11,38,17.40
2011,08,08,11,39,17.40
2011,08,08,11,40,17.40
2011,08,08,11,41,17.40
2011,08,08,11,42,17.50
2011,08,08,11,43,17.50
2011,08,08,11,44,17.60
2011,08,08,11,45,17.60
2011,08,08,11,46,17.60
2011,08,08,11,47,17.60
2011,08,08,11,48,17.60
2011,08,08,11,49,17.60
2011,08,08,11,50,17.60
2011,08,08,11,51,17.60
2011,08,08,11,52,17.60
2011,08,08,11,53,17.60
2011,08,08,11,54,17.50
2011,08,08,11,55,17.40
2011,08,08,11,56,17.40
2011,08,08,11,57,17.40
2011,08,08,11,58,17.40
2011,08,08,11,59,17.50
2011,08,08,12,00,17.60
2011,08,08,12,01,17.60
2011,08,08,12,02,17.60
2011,08,08,12,03,17.70
2011,08,08,12,04,17.70
2011,08,08,12,05,17.70
2011,08,08,12,06,17.70
2011,08,08,12,07,17.80
2011,08,08,12,08,17.80
2011,08,08,12,09,17.80
2011,08,08,12,10,17.80
2011,08,08,12,11,17.80
2011,08,08,12,12,17.80
2011,08,08,12,13,17.70
2011,08,08,12,14,17.70
2011,08,08,12,15,17.70
2011,08,08,12,16,17.70
2011,08,08,12,17,17.70
2011,08,08,12,18,17.70
2011,08,08,12,19,17.60
2011,08,08,12,20,17.50
2011,08,08,12,21,17.50
2011,08,08,12,22,17.40
2011,08,08,12,23,17.40
2011,08,08,12,24,17.40
2011,08,08,12,25,17.40
2011,08,08,12,26,17.40
2011,08,08,12,27,17.40
2011,08,08,12,28,17.30
2011,08,08,12,29,17.30
2011,08,08,12,30,17.40
2011,08,08,12,31,17.40
2011,08,08,12,32,17.40
2011,08,08,12,33,17.50
2011,08,08,12,34,17.50
2011,08,08,12,35,17.60
2011,08,08,12,36,17.60
2011,08,08,12,37,17.60
2011,08,08,12,38,17.70
2011,08,08,12,39,17.70
2011,08,08,12,40,17.70
2011,08,08,12,41,17.80
2011,08,08,12,42,17.70
2011,08,08,12,43,17.70
2011,08,08,12,44,17.70
2011,08,08,12,45,17.70
2011,08,08,12,46,17.60
2011,08,08,12,47,17.60
2011,08,08,12,48,17.60
2011,08,08,12,49,17.60
2011,08,08,12,50,17.60
2011,08,08,12,51,17.60
2011,08,08,12,52,17.60
2011,08,08,12,53,17.70
2011,08,08,12,54,17.70
2011,08,08,12,55,17.70
2011,08,08,12,56,17.70
2011,08,08,12,57,17.70
2011,08,08,12,58,17.70
2011,08,08,12,59,17.70
2011,08,08,13,00,17.70
2011,08,08,13,01,17.70
2011,08,08,13,02,17.60
2011,08,08,13,03,17.60
2011,08,08,13,04,17.60
2011,08,08,13,05,17.60
2011,08,08,13,06,17.60
2011,08,08,13,07,17.70
2011,08,08,13,08,17.80
2011,08,08,13,09,17.80
2011,08,08,13,10,17.90
2011,08,08,13,11,17.80
2011,08,08,13,12,17.80
2011,08,08,13,13,17.80
2011,08,08,13,14,17.70
2011,08,08,13,15,17.70
2011,08,08,13,16,17.60
2011,08,08,13,17,17.50
2011,08,08,13,18,17.50
2011,08,08,13,19,17.40
2011,08,08,13,20,17.40
2011,08,08,13,21,17.40
2011,08,08,13,22,17.40
2011,08,08,13,23,17.40
2011,08,08,13,24,17.30
2011,08,08,13,25,17.30
2011,08,08,13,26,17.30
2011,08,08,13,27,17.30
2011,08,08,13,28,17.30
2011,08,08,13,29,17.30
2011,08,08,13,30,17.20
2011,08,08,13,31,17.20
2011,08,08,13,32,17.10
2011,08,08,13,33,17.10
2011,08,08,13,34,17.00
2011,08,08,13,35,17.00
2011,08,08,13,36,17.00
2011,08,08,13,37,17.10
2011,08,08,13,38,17.10
2011,08,08,13,39,17.10
2011,08,08,13,40,17.10
2011,08,08,13,41,17.00
2011,08,08,13,42,17.00
2011,08,08,13,43,16.90
2011,08,08,13,44,16.90
2011,08,08,13,45,16.90
2011,08,08,13,46,16.90
2011,08,08,13,47,16.90
2011,08,08,13,48,16.90
2011,08,08,13,49,16.90
2011,08,08,13,50,16.90
2011,08,08,13,51,16.90
2011,08,08,13,52,16.90
2011,08,08,13,53,16.90
2011,08,08,13,54,16.80
2011,08,08,13,55,16.80
2011,08,08,13,56,16.80
2011,08,08,13,57,16.80
2011,08,08,13,58,16.80
2011,08,08,13,59,16.80
2011,08,08,14,00,16.80
2011,08,08,14,01,16.80
2011,08,08,14,02,16.80
2011,08,08,14,03,16.80
2011,08,08,14,04,16.80
2011,08,08,14,05,16.80
2011,08,08,14,06,16.80
2011,08,08,14,07,16.80
2011,08,08,14,08,16.80
2011,08,08,14,09,16.80
2011,08,08,14,10,16.90
2011,08,08,14,11,16.90
2011,08,08,14,12,16.90
2011,08,08,14,13,16.90
2011,08,08,14,14,17.00
2011,08,08,14,15,17.00
2011,08,08,14,16,17.10
2011,08,08,14,17,17.10
2011,08,08,14,18,17.00
2011,08,08,14,19,17.00
2011,08,08,14,20,17.00
2011,08,08,14,21,17.00
2011,08,08,14,22,16.90
2011,08,08,14,23,16.90
2011,08,08,14,24,16.90
2011,08,08,14,25,16.80
2011,08,08,14,26,16.80
2011,08,08,14,27,16.80
2011,08,08,14,28,16.90
2011,08,08,14,29,16.90
2011,08,08,14,30,16.90
2011,08,08,14,31,16.90
2011,08,08,14,32,17.00
2011,08,08,14,33,17.00
2011,08,08,14,34,17.00
2011,08,08,14,35,17.00
2011,08,08,14,36,16.90
2011,08,08,14,37,16.90
2011,08,08,14,38,16.80
2011,08,08,14,39,16.80
2011,08,08,14,40,16.80
2011,08,08,14,41,16.80
2011,08,08,14,42,16.80
2011,08,08,14,43,16.90
2011,08,08,14,44,17.00
2011,08,08,14,45,17.00
2011,08,08,14,46,17.00
2011,08,08,14,47,17.00
2011,08,08,14,48,17.00
2011,08,08,14,49,16.90
2011,08,08,14,50,16.90
2011,08,08,14,51,16.90
2011,08,08,14,52,16.90
2011,08,08,14,53,16.80
2011,08,08,14,54,16.80
2011,08,08,14,55,16.70
2011,08,08,14,56,16.70
2011,08,08,14,57,16.60
2011,08,08,14,58,16.60
2011,08,08,14,59,16.60
2011,08,08,15,00,16.60
2011,08,08,15,01,16.50
2011,08,08,15,02,16.50
2011,08,08,15,03,16.60
2011,08,08,15,04,16.60
2011,08,08,15,05,16.70
2011,08,08,15,06,16.80
2011,08,08,15,07,16.80
2011,08,08,15,08,16.90
2011,08,08,15,09,16.90
2011,08,08,15,10,16.90
2011,08,08,15,11,17.00
2011,08,08,15,12,17.10
2011,08,08,15,13,17.10
2011,08,08,15,14,17.10
2011,08,08,15,15,17.20
2011,08,08,15,16,17.20
2011,08,08,15,17,17.20
2011,08,08,15,18,17.20
2011,08,08,15,19,17.20
2011,08,08,15,20,17.10
2011,08,08,15,21,17.10
2011,08,08,15,22,17.10
2011,08,08,15,23,17.10
2011,08,08,15,24,17.10
2011,08,08,15,25,17.10
2011,08,08,15,26,17.10
2011,08,08,15,27,17.10
2011,08,08,15,28,17.10
2011,08,08,15,29,17.10
2011,08,08,15,30,17.10
2011,08,08,15,31,17.10
2011,08,08,15,32,17.10
2011,08,08,15,33,17.00
2011,08,08,15,34,16.90
2011,08,08,15,35,16.90
2011,08,08,15,36,16.90
2011,08,08,15,37,16.90
2011,08,08,15,38,16.80
2011,08,08,15,39,16.80
2011,08,08,15,40,16.80
2011,08,08,15,41,16.80
2011,08,08,15,42,16.80
2011,08,08,15,43,16.80
2011,08,08,15,44,16.70
2011,08,08,15,45,16.70
2011,08,08,15,46,16.70
2011,08,08,15,47,16.60
2011,08,08,15,48,16.70
2011,08,08,15,49,16.70
2011,08,08,15,50,16.70
2011,08,08,15,51,16.70
2011,08,08,15,52,16.60
2011,08,08,15,53,16.60
2011,08,08,15,54,16.60
2011,08,08,15,55,16.60
2011,08,08,15,56,16.60
2011,08,08,15,57,16.60
2011,08,08,15,58,16.60
2011,08,08,15,59,16.60
2011,08,08,16,00,16.70
2011,08,08,16,01,16.80
2011,08,08,16,02,16.80
2011,08,08,16,03,16.80
2011,08,08,16,04,16.80
2011,08,08,16,05,16.80
2011,08,08,16,06,16.90
2011,08,08,16,07,16.90
2011,08,08,16,08,16.90
2011,08,08,16,09,16.90
2011,08,08,16,10,16.80
2011,08,08,16,11,16.80
2011,08,08,16,12,16.90
2011,08,08,16,13,16.90
2011,08,08,16,14,16.90
2011,08,08,16,15,17.00
2011,08,08,16,16,17.10
2011,08,08,16,17,17.20
2011,08,08,16,18,17.20
2011,08,08,16,19,17.30
2011,08,08,16,20,17.20
2011,08,08,16,21,17.20
2011,08,08,16,22,17.20
2011,08,08,16,23,17.10
2011,08,08,16,24,17.10
2011,08,08,16,25,17.20
2011,08,08,16,26,17.20
2011,08,08,16,27,17.20
2011,08,08,16,28,17.20
2011,08,08,16,29,17.30
2011,08,08,16,30,17.30
2011,08,08,16,31,17.40
2011,08,08,16,32,17.50
2011,08,08,16,33,17.50
2011,08,08,16,34,17.60
2011,08,08,16,35,17.60
2011,08,08,16,36,17.60
2011,08,08,16,37,17.70
2011,08,08,16,38,17.70
2011,08,08,16,39,17.80
2011,08,08,16,40,17.80
2011,08,08,16,41,17.80
2011,08,08,16,42,17.90
2011,08,08,16,43,17.90
2011,08,08,16,44,18.00
2011,08,08,16,45,18.00
2011,08,08,16,46,18.00
2011,08,08,16,47,18.00
2011,08,08,16,48,17.90
2011,08,08,16,49,17.90
2011,08,08,16,50,17.90
2011,08,08,16,51,17.80
2011,08,08,16,52,17.70
2011,08,08,16,53,17.70
2011,08,08,16,54,17.70
2011,08,08,16,55,17.60
2011,08,08,16,56,17.60
2011,08,08,16,57,17.60
2011,08,08,16,58,17.60
2011,08,08,16,59,17.60
2011,08,08,17,00,17.60
2011,08,08,17,01,17.60
2011,08,08,17,02,17.50
2011,08,08,17,03,17.50
2011,08,08,17,04,17.50
2011,08,08,17,05,17.40
2011,08,08,17,06,17.40
2011,08,08,17,07,17.40
2011,08,08,17,08,17.40
2011,08,08,17,09,17.40
2011,08,08,17,10,17.50
2011,08,08,17,11,17.50
2011,08,08,17,12,17.40
2011,08,08,17,13,17.40
2011,08,08,17,14,17.40
2011,08,08,17,15,17.30
2011,08,08,17,16,17.30
2011,08,08,17,17,17.30
2011,08,08,17,18,17.30
2011,08,08,17,19,17.30